Meteopurmerend
purmerend
Purmerend - Baaienwijk



My webcam  My webcam


Onweer radar Meer informatie blitzortung!


Regen radar Meer informatie rain snow radar


Bezoek onze andere website:

CandyAppleRed WebdesignWebdesign Purmerend Candy Apple Red

MeteopurmerendBlog

Template documentation
and downloads



We konden geen weer-waarchuwingen ophalen. Ga rechtstreeks naar de Meteoalarm site : www.meteoalarm.eu en controleer daar .

15 daagse weersverwachting Ringsted (DK)

  • Overzicht
  • Per uur
  • 15 dagen
  • Extra
  • Vergelijk
  • Kaarten
  • Dagkaart
  • Meer »
  • Info
  • Statistieken
  • Directe link
    Temp 6h Neerslag Wind  
 04:34     21:59    Daglengte: 17:25 Vandaag
08:00
19°
 
2
14:00
27°
 
3
20:00
23°
 
3
 04:35     21:59    Daglengte: 17:24 Morgen
02:00
18°
 
2
08:00
20°
 
3
14:00
28°
 
5
20:00
21°
2.4 mm
6
warningclass
 04:35     21:58    Daglengte: 17:23 Dinsdag 28 Jun
02:00
15°
15.1 mm
4
08:00
16°
5.3 mm
3
14:00
21°
 
4
20:00
21°
 
2
 04:36     21:58    Daglengte: 17:22 Woensdag 29 Jun
02:00
13°
 
1
Locatie info
Region: Sjælland
Latitude: 55.4459°N
Longitude: 11.7873°E
54 masl
Postcode: 4100
Temp/Neerslag /Baro Onweer/Dauwpunt
    Temp Baro 1h Neerslag Dauwpunt Wind UV Bewolking  
 04:34     21:59    Daglengte: 17:25 Vandaag
05:00
17°
1013.7 hPa
45%
16.0°
2
Windvlaag: -0.3 m/s
49%
06:00
17°
1013.9 hPa
19%
16.3°
2
Windvlaag: -0.9 m/s
43%
07:00
18°
1013.9 hPa
11%
16.5°
2
Windvlaag: -1.3 m/s
50%
08:00
19°
1014.1 hPa
11%
16.7°
2
Windvlaag: -1.2 m/s
60%
09:00
21°
1014.3 hPa
11%
16.7°
1
Windvlaag: 0.3 m/s
40%
10:00
22°
1014.4 hPa
15%
17.2°
2
Windvlaag: 1.6 m/s
58%
11:00
24°
1014.5 hPa
32%
17.7°
2
Windvlaag: -1 m/s
74%
12:00
25°
1014.6 hPa
57%
17.9°
3
Windvlaag: 0.5 m/s
71%
13:00
26°
1014.6 hPa
16%
18.0°
3
Windvlaag: 5.9 m/s
55%
14:00
27°
1014.6 hPa
20%
18.4°
3
Windvlaag: 6.5 m/s
53%
15:00
26°
1014.5 hPa
62%
20.1°
3
Windvlaag: 6.3 m/s
58%
16:00
26°
1014.7 hPa
68%
19.1°
3
Windvlaag: 6.6 m/s
71%
17:00
25°
1014.8 hPa
29%
17.8°
3
Windvlaag: 7.1 m/s
64%
18:00
25°
1014.9 hPa
65%
18.8°
2
Windvlaag: 4.5 m/s
50%
19:00
24°
1014.6 hPa
14%
18.2°
2
Windvlaag: 1.9 m/s
47%
20:00
23°
1014.7 hPa
15%
17.8°
3
Windvlaag: 0.6 m/s
55%
21:00
22°
1015.0 hPa
71%
18.0°
2
Windvlaag: 0.4 m/s
40%
22:00
21°
1015.4 hPa
82%
18.5°
1
Windvlaag: 0.7 m/s
36%
23:00
20°
1015.5 hPa
21%
18.3°
2
Windvlaag: 0.1 m/s
57%
 04:35     21:59    Daglengte: 17:24 Morgen
00:00
19°
1015.5 hPa
20%
18.0°
2
Windvlaag: 0.6 m/s
56%
01:00
18°
1015.1 hPa
14%
17.7°
1
Windvlaag: 0.5 m/s
13%
02:00
18°
1014.9 hPa
14%
17.1°
2
Windvlaag: 0.4 m/s
14%
03:00
17°
1014.8 hPa
14%
16.6°
2
Windvlaag: 0.7 m/s
12%
04:00
17°
1014.6 hPa
14%
15.9°
2
Windvlaag: -0.3 m/s
39%
05:00
17°
1014.4 hPa
14%
15.6°
2
Windvlaag: -0.6 m/s
19%
06:00
17°
1014.1 hPa
14%
15.1°
2
Windvlaag: -0 m/s
11%
07:00
19°
1014.0 hPa
14%
15.9°
3
Windvlaag: 1.7 m/s
23%
08:00
20°
1013.9 hPa
14%
16.0°
3
Windvlaag: 1.9 m/s
20%
09:00
22°
1013.5 hPa
15%
16.8°
3
Windvlaag: 2.6 m/s
34%
10:00
24°
1013.5 hPa
14%
17.5°
4
Windvlaag: 3.5 m/s
21%
11:00
26°
1013.2 hPa
14%
17.6°
4
Windvlaag: 4.2 m/s
10%
12:00
27°
1013.0 hPa
14%
17.9°
5
Windvlaag: 6.3 m/s
18%
13:00
28°
1012.8 hPa
14%
18.8°
5
Windvlaag: 7.1 m/s
25%
14:00
28°
1012.5 hPa
14%
19.2°
5
Windvlaag: 10.2 m/s
56%
15:00
27°
1012.3 hPa
14%
19.0°
5
Windvlaag: 10.2 m/s
68%
16:00
26°
1012.6 hPa
17%
18.5°
4
Windvlaag: 7.9 m/s
44%
17:00
26°
1012.5 hPa
22%
17.1°
6
Windvlaag: 0.3 m/s
46%
18:00
24°
1012.8 hPa 1.0 mm
72%
14.8°
6
Windvlaag: 0.3 m/s
68%
19:00
22°
1013.4 hPa 1.4 mm
77%
13.3°
6
Windvlaag: -1 m/s
52%
20:00
21°
1014.2 hPa
82%
13.0°
6
Windvlaag: -1.8 m/s
86% warningclass
21:00
20°
1014.5 hPa 2.7 mm
82%
12.7°
6
Windvlaag: -3.5 m/s
84%
22:00
19°
1015.1 hPa 3.5 mm
82%
13.8°
4
Windvlaag: -4.2 m/s
84% warningclass
23:00
16°
1015.6 hPa 1.8 mm
100%
14.9°
5
Windvlaag: -3.2 m/s
96%
 04:35     21:58    Daglengte: 17:23 Dinsdag 28 Jun
00:00
16°
1016.8 hPa 0.8 mm
100%
14.9°
5
Windvlaag: -2.4 m/s
100%
01:00
16°
1016.9 hPa 1.9 mm
100%
14.4°
5
Windvlaag: -2.7 m/s
99%
02:00
15°
1017.1 hPa 4.4 mm
100%
13.8°
4
Windvlaag: -2.3 m/s
93%
03:00
15°
1017.1 hPa 1.9 mm
100%
13.4°
4
Windvlaag: -2.4 m/s
92%
04:00
14°
1017.3 hPa 1.5 mm
100%
13.3°
4
Windvlaag: -1 m/s
96%
05:00
14°
1017.9 hPa 1.8 mm
100%
12.5°
3
Windvlaag: 0.7 m/s
61%
06:00
14°
1018.0 hPa
94%
12.3°
3
Windvlaag: 0.9 m/s
66%
07:00
15°
1018.7 hPa
23%
13.0°
3
Windvlaag: 1.9 m/s
51%
08:00
16°
1018.8 hPa
21%
12.3°
3
Windvlaag: 7 m/s
15%
09:00
17°
1019.0 hPa
21%
11.6°
5
Windvlaag: 7.8 m/s
8%
10:00
18°
1019.4 hPa
21%
10.4°
5
Windvlaag: 7.3 m/s
2%
11:00
19°
1019.8 hPa
21%
9.8°
4
Windvlaag: 6.7 m/s
0%
12:00
20°
1020.0 hPa
21%
10.0°
5
Windvlaag: 6.3 m/s
0%
13:00
21°
1020.1 hPa
21%
10.7°
4
Windvlaag: 5.8 m/s
3%
14:00
21°
1020.1 hPa
21%
10.3°
4
Windvlaag: 5 m/s
2%
15:00
22°
1020.0 hPa
21%
9.4°
3
Windvlaag: 4.1 m/s
0%
16:00
22°
1020.1 hPa
21%
8.9°
3
Windvlaag: 3.4 m/s
0%
17:00
22°
1020.1 hPa
21%
9.3°
3
Windvlaag: 3.6 m/s
18%
18:00
22°
1019.8 hPa
21%
10.4°
3
Windvlaag: 3.6 m/s
10%
19:00
21°
1019.7 hPa
21%
11.0°
2
Windvlaag: 3.3 m/s
10%
20:00
21°
1019.7 hPa
21%
11.6°
2
Windvlaag: 3 m/s
6%
21:00
19°
1019.9 hPa
21%
13.1°
2
Windvlaag: 3.3 m/s
2%
22:00
16°
1020.1 hPa
21%
11.0°
2
Windvlaag: 3.7 m/s
24%
23:00
15°
1020.1 hPa
21%
10.4°
1
Windvlaag: 2.1 m/s
9%
 04:36     21:58    Daglengte: 17:22 Woensdag 29 Jun
00:00
14°
1020.2 hPa
21%
9.6°
1
Windvlaag: 1.8 m/s
0%
01:00
13°
1020.2 hPa
21%
9.3°
1
Windvlaag: 0.6 m/s
0%
02:00
13°
1019.9 hPa
21%
9.2°
1
Windvlaag: 1.3 m/s
0%
Temp/Neerslag /Baro Onweer/Dauwpunt
    Temp Baro Neerslag Dauwpunt Wind Bewolking  
 04:34     21:59    Daglengte: 17:25 Vandaag
05:00
17°
1013.7 hPa   16.0°
2
49%
08:00
19°
1014.1 hPa   16.7°
2
60%
11:00
24°
1014.5 hPa   17.7°
2
74%
14:00
27°
1014.6 hPa   18.4°
3
53%
17:00
25°
1014.8 hPa   17.8°
3
64%
20:00
23°
1014.7 hPa   17.8°
3
55%
23:00
20°
1015.5 hPa   18.3°
2
57%
 04:35     21:59    Daglengte: 17:24 Morgen
02:00
18°
1014.9 hPa   17.1°
2
14%
05:00
17°
1014.4 hPa   15.6°
2
19%
08:00
20°
1013.9 hPa   16.0°
3
20%
11:00
26°
1013.2 hPa   17.6°
4
10%
14:00
28°
1012.5 hPa   19.2°
5
56%
17:00
26°
1012.5 hPa   17.1°
6
46%
20:00
21°
1014.2 hPa 2.4 mm 13.0°
6
86% warningclass
23:00
16°
1015.6 hPa 8.0 mm 14.9°
5
96%
 04:35     21:58    Daglengte: 17:23 Dinsdag 28 Jun
02:00
15°
1017.1 hPa 7.1 mm 13.8°
4
93%
05:00
14°
1017.9 hPa 5.3 mm 12.5°
3
61%
08:00
16°
1018.8 hPa   12.3°
3
15%
11:00
19°
1019.8 hPa   9.8°
4
0%
14:00
21°
1020.1 hPa   10.3°
4
2%
17:00
22°
1020.1 hPa   9.3°
3
18%
20:00
21°
1019.7 hPa   11.6°
2
6%
23:00
15°
1020.1 hPa   10.4°
1
9%
 04:36     21:58    Daglengte: 17:22 Woensdag 29 Jun
02:00
13°
1019.9 hPa   9.2°
1
0%
05:00
12°
1021.1 hPa 17.8 mm 9.4°
2
0%
08:00
18°
1020.9 hPa 17.8 mm 12.6°
2
0%
11:00
21°
1020.9 hPa 17.8 mm 11.8°
2
0%
14:00
23°
1020.0 hPa 17.8 mm 11.1°
3
0%
17:00
23°
1019.2 hPa 17.8 mm 9.9°
2
0%
20:00
20°
1018.2 hPa 17.8 mm 14.9°
2
0%
23:00
14°
1018.7 hPa 17.8 mm 12.4°
2
0%
 04:37     21:58    Daglengte: 17:21 Donderdag 30 Jun
02:00
14°
1018.0 hPa 17.8 mm 12.3°
3
0%
05:00
13°
1017.6 hPa 17.8 mm 12.2°
3
0%
08:00
16°
1017.0 hPa 17.8 mm 13.1°
3
0%
11:00
20°
1016.4 hPa 17.8 mm 12.5°
4
1%
14:00
21°
1015.4 hPa 17.8 mm 14.8°
4
0%
17:00
21°
1014.3 hPa 17.8 mm 15.8°
2
1%
20:00
19°
1013.5 hPa 17.8 mm 16.0°
2
1%
23:00
16°
1012.9 hPa 17.8 mm 14.9°
2
1%
 04:38     21:57    Daglengte: 17:19 Vrijdag 01 Jul
02:00
15°
1012.3 hPa 17.8 mm 14.5°
1
1%
05:00
15°
1011.1 hPa 17.8 mm 14.9°
2
0%
08:00
19°
1011.0 hPa 17.8 mm 17.3°
3
0%
11:00
23°
1010.3 hPa 17.8 mm 16.9°
3
1%
14:00
22°
1010.9 hPa 19.5 mm 18.1°
4
1%
17:00
22°
1011.5 hPa 20.5 mm 18.5°
3
1%
20:00
20°
1011.7 hPa 21.0 mm 18.7°
6
1%
23:00
16°
1014.4 hPa 21.0 mm 13.4°
6
1%
 04:39     21:57    Daglengte: 17:18 Zaterdag 02 Jul
02:00
13°
1015.2 hPa 21.0 mm 12.1°
4
1%
05:00
12°
1015.7 hPa 21.0 mm 11.4°
3
0%
08:00
17°
1017.2 hPa 21.0 mm 12.3°
5
0%
11:00
18°
1017.4 hPa 21.0 mm 10.1°
5
1%
14:00
19°
1018.1 hPa 21.0 mm 9.8°
5
1%
17:00
20°
1017.4 hPa 21.1 mm 11.9°
6
0%
20:00
18°
1017.1 hPa 21.4 mm 13.1°
5
0%
23:00
14°
1017.6 hPa 21.4 mm 11.5°
3
1%
 04:40     21:56    Daglengte: 17:16 Zondag 03 Jul
02:00
13°
1017.1 hPa 42.8 mm 12.0°
3
1%
08:00
17°
1015.8 hPa 43.8 mm 13.3°
7
1%
14:00
20°
1014.8 hPa 45.0 mm 13.4°
10
0%
20:00
17°
1013.6 hPa 47.7 mm 11.1°
6
1%
 04:40     21:56    Daglengte: 17:16 Maandag 04 Jul
02:00
12°
1013.0 hPa 47.9 mm 10.6°
5
0%
08:00
15°
1011.0 hPa 48.9 mm 12.6°
6
0%
14:00
18°
1009.8 hPa 52.6 mm 12.2°
10
1%
20:00
16°
1012.0 hPa 55.3 mm 9.9°
9
1%
 04:41     21:55    Daglengte: 17:14 Dinsdag 05 Jul
02:00
14°
1013.1 hPa 55.8 mm 10.9°
8
1%
08:00
15°
1013.9 hPa 56.6 mm 10.8°
9
1%
14:00
17°
1016.0 hPa 56.9 mm 11.1°
9
1%
20:00
17°
1016.4 hPa 57.3 mm 12.4°
7
1%
 04:43     21:54    Daglengte: 17:11 Woensdag 06 Jul
02:00
14°
1016.8 hPa 0.2 mm 11.3°
3
48%
08:00
16°
1016.9 hPa 0.3 mm 12.5°
3
61%
14:00
21°
1017.0 hPa 0.3 mm 12.7°
4
59%
20:00
19°
1016.1 hPa 0.3 mm 13.0°
2
58%
 04:44     21:54    Daglengte: 17:10 Donderdag 07 Jul
02:00
14°
1016.0 hPa 0.2 mm 11.9°
2
50%
08:00
16°
1015.6 hPa 0.3 mm 13.0°
2
50%
14:00
20°
1015.7 hPa 0.7 mm 13.5°
3
57%
20:00
19°
1015.1 hPa 0.2 mm 13.5°
2
47%
 04:45     21:53    Daglengte: 17:08 Vrijdag 08 Jul
02:00
14°
1015.3 hPa   11.9°
2
50%
08:00
16°
1015.0 hPa 1.0 mm 12.9°
3
61%
14:00
20°
1015.0 hPa 0.7 mm 13.0°
4
67%
20:00
19°
1014.5 hPa 0.5 mm 13.1°
3
51%
 04:46     21:52    Daglengte: 17:06 Zaterdag 09 Jul
02:00
14°
1014.9 hPa 0.6 mm 11.5°
2
48%
08:00
16°
1014.7 hPa 0.2 mm 12.3°
3
44%
14:00
21°
1014.2 hPa 0.8 mm 13.0°
4
52%
20:00
19°
1013.4 hPa 0.8 mm 13.1°
3
50%
 04:47     21:51    Daglengte: 17:04 Zondag 10 Jul
02:00
14°
1013.1 hPa 0.3 mm 11.8°
2
41%
08:00
16°
1012.4 hPa 0.4 mm 12.7°
3
56%
14:00
20°
1012.3 hPa 1.3 mm 12.6°
4
61%
20:00
18°
1012.0 hPa 0.9 mm 12.4°
3
53%
 04:49     21:50    Daglengte: 17:01 Maandag 11 Jul
02:00
14°
1012.3 hPa 0.5 mm 11.1°
3
38%
  CAPE Lifted Index Hail Supercell Tornado SRH 3km CL BTM PRES CL TOP PRES Swiss DWD icon SMHI TS
 04:34     21:59    Daglengte: 17:25 Vandaag
05:00 0 J/kg -1.4 K 0 % 0 % 0 % 0 m²/s² 0 0 -0.59 3
06:00 0 J/kg -2.1 K 0 % 0 % 0 % 0 m²/s² 0 0 -1.14 3
07:00 0 J/kg -3.2 K 0 % 0 % 0 % 0 m²/s² 0 0 -2.39 3
08:00 0 J/kg -3.3 K 0 % 0 % 0 % 0 m²/s² 0 0 -2.58 3
09:00 173 J/kg -3.4 K 0 % 0 % 0 % 0 m²/s² 0 0 -2.77 3
10:00 644 J/kg -3.6 K 0 % 0 % 0 % 0 m²/s² 0 0 -2.97 3
11:00 1234 J/kg -4.5 K 0 % 0 % 0 % 0 m²/s² 0 0 -3.63 3
12:00 1609 J/kg -5.5 K 0 % 0 % 0 % 0 m²/s² 0 0 -4.45 3
13:00 1731 J/kg -5.7 K 0 % 0 % 0 % 0 m²/s² 0 0 -4.32 3
14:00 1764 J/kg -5.6 K 0 % 0 % 0 % 0 m²/s² 0 0 -4.13 3
15:00 1713 J/kg -5.3 K 0 % 0 % 0 % 0 m²/s² 0 0 -4.04 3
16:00 1444 J/kg -4.3 K 0 % 0 % 0 % 0 m²/s² 0 0 -3.04 3
17:00 881 J/kg -3.3 K 0 % 0 % 0 % 0 m²/s² 0 0 -2.49 3
18:00 1001 J/kg -4.0 K 0 % 0 % 0 % 0 m²/s² 0 0 -3.34 3
19:00 1006 J/kg -3.9 K 0 % 0 % 0 % 0 m²/s² 0 0 -3.09 3
20:00 456 J/kg -1.7 K 0 % 0 % 0 % 0 m²/s² 0 0 -0.89 3
21:00 0 J/kg -2.1 K 0 % 0 % 0 % 0 m²/s² 0 0 -1.14 3
22:00 0 J/kg -1.9 K 0 % 0 % 0 % 0 m²/s² 0 0 -1.24 80
23:00 0 J/kg -1.8 K 0 % 0 % 0 % 0 m²/s² 0 0 -1.14 3
 04:35     21:59    Daglengte: 17:24 Morgen
00:00 0 J/kg -2.4 K 0 % 0 % 0 % 0 m²/s² 0 0 -1.53 3
01:00 0 J/kg -2.6 K 0 % 0 % 0 % 0 m²/s² 0 0 -1.55 1
02:00 0 J/kg -2.9 K 0 % 0 % 0 % 0 m²/s² 0 0 -1.67 1
03:00 0 J/kg -2.7 K 0 % 0 % 0 % 0 m²/s² 0 0 -1.26 1
04:00 0 J/kg -2.8 K 0 % 0 % 0 % 0 m²/s² 0 0 -1.69 3
05:00 0 J/kg -2.5 K 0 % 0 % 0 % 0 m²/s² 0 0 -1.3 1
06:00 0 J/kg -2.7 K 0 % 0 % 0 % 0 m²/s² 0 0 -1.38 1
07:00 7 J/kg -2.3 K 0 % 0 % 0 % 0 m²/s² 0 0 -0.92 3
08:00 87 J/kg -1.7 K 0 % 0 % 0 % 0 m²/s² 0 0 -0.08 3
09:00 691 J/kg -1.9 K 0 % 0 % 0 % 0 m²/s² 0 0 -0.22 3
10:00 1090 J/kg -3.0 K 0 % 0 % 0 % 0 m²/s² 0 0 -1.32 3
11:00 1181 J/kg -3.8 K 0 % 0 % 0 % 0 m²/s² 0 0 -2.24 1
12:00 1260 J/kg -4.3 K 0 % 0 % 0 % 0 m²/s² 0 0 -2.74 2
13:00 1233 J/kg -4.0 K 0 % 0 % 0 % 0 m²/s² 0 0 -2.2 3
14:00 1425 J/kg -4.2 K 0 % 0 % 0 % 0 m²/s² 0 0 -3.3 3
15:00 1399 J/kg -3.6 K 0 % 0 % 0 % 0 m²/s² 0 0 -2.79 3
16:00 1560 J/kg -3.8 K 0 % 0 % 0 % 0 m²/s² 0 0 -2.06 3
17:00 1249 J/kg -3.2 K 0 % 0 % 0 % 0 m²/s² 0 0 -0.38 3
18:00 1141 J/kg -3.2 K 0 % 0 % 0 % 0 m²/s² 0 0 -0.05 80
19:00 311 J/kg -1.7 K 0 % 0 % 0 % 0 m²/s² 0 0 0.94 80
20:00 1 J/kg -0.1 K 0 % 0 % 0 % 0 m²/s² 0 0 1.76 95
21:00 1 J/kg 1.3 K 0 % 0 % 0 % 0 m²/s² 0 0 2.68 81
22:00 1 J/kg 2.4 K 0 % 0 % 0 % 0 m²/s² 0 0 3.36 95
23:00 2 J/kg 3.3 K 0 % 0 % 0 % 0 m²/s² 0 0 3.78 80
 04:35     21:58    Daglengte: 17:23 Dinsdag 28 Jun
00:00 0 J/kg 3.9 K 0 % 0 % 0 % 0 m²/s² 0 0 3.99 3
01:00 0 J/kg 5.5 K 0 % 0 % 0 % 0 m²/s² 0 0 5.5 80
02:00 0 J/kg 5.4 K 0 % 0 % 0 % 0 m²/s² 0 0 5.4 55
03:00 0 J/kg 5.5 K 0 % 0 % 0 % 0 m²/s² 0 0 5.59 80
04:00 0 J/kg 7.2 K 0 % 0 % 0 % 0 m²/s² 0 0 8.04 80
05:00 0 J/kg 7.2 K 0 % 0 % 0 % 0 m²/s² 0 0 9.42 61
06:00 0 J/kg 8.5 K 0 % 0 % 0 % 0 m²/s² 0 0 12.64 3
07:00 0 J/kg 7.6 K 0 % 0 % 0 % 0 m²/s² 0 0 11.74 3
08:00 0 J/kg 7.7 K 0 % 0 % 0 % 0 m²/s² 0 0 12.23 0
09:00 0 J/kg 7.6 K 0 % 0 % 0 % 0 m²/s² 0 0 13.33 1
10:00 0 J/kg 7.6 K 0 % 0 % 0 % 0 m²/s² 0 0 13.63 1
11:00 0 J/kg 8.2 K 0 % 0 % 0 % 0 m²/s² 0 0 15.76 0
12:00 0 J/kg 8.9 K 0 % 0 % 0 % 0 m²/s² 0 0 17.78 1
13:00 12 J/kg 8.5 K 0 % 0 % 0 % 0 m²/s² 0 0 17.41 1
14:00 10 J/kg 8.9 K 0 % 0 % 0 % 0 m²/s² 0 0 17.45 1
15:00 4 J/kg 9.5 K 0 % 0 % 0 % 0 m²/s² 0 0 18.47 1
16:00 0 J/kg 9.6 K 0 % 0 % 0 % 0 m²/s² 0 0 19.05 1
17:00 8 J/kg 9.1 K 0 % 0 % 0 % 0 m²/s² 0 0 18.58 2
18:00 18 J/kg 7.9 K 0 % 0 % 0 % 0 m²/s² 0 0 17.44 1
19:00 29 J/kg 7.2 K 0 % 0 % 0 % 0 m²/s² 0 0 16.77 1
20:00 20 J/kg 7.0 K 0 % 0 % 0 % 0 m²/s² 0 0 16.21 0
21:00 16 J/kg 7.0 K 0 % 0 % 0 % 0 m²/s² 0 0 15.19 0
22:00 1 J/kg 7.4 K 0 % 0 % 0 % 0 m²/s² 0 0 15.05 3
23:00 0 J/kg 7.9 K 0 % 0 % 0 % 0 m²/s² 0 0 15.04 1
 04:36     21:58    Daglengte: 17:22 Woensdag 29 Jun
00:00 0 J/kg 8.4 K 0 % 0 % 0 % 0 m²/s² 0 0 14.94 1
01:00 0 J/kg 8.8 K 0 % 0 % 0 % 0 m²/s² 0 0 14.8 2
02:00 0 J/kg 8.9 K 0 % 0 % 0 % 0 m²/s² 0 0 14.72 0
Temp Baro Wind Neerslag
  EWN Forecast EWN WRFDA DWD ICON FMI HIRLAM MET Norway GFS
 04:34     21:59    Daglengte: 17:25 Vandaag
05:00 16.7° 1013.7 hPa 1.8 m/s 0.0 mm 14.6° 1013.1 hPa 2.6 m/s 0.6 mm 16.7° 1014.0 hPa 1.6 m/s -1.3 mm 16.4° 1013.6 hPa 1.3 m/s 0.0 mm 16.3° 1013.4 hPa 2.9 m/s
08:00 19.5° 1014.1 hPa 1.9 m/s 0.0 mm 21.3° 1013.7 hPa 1.7 m/s 1.8 mm 19.5° 1014.6 hPa 2.5 m/s 0.0 mm 19.3° 1013.7 hPa 1.6 m/s 0.0 mm 18.6° 1013.9 hPa 2.6 m/s
11:00 23.6° 1014.5 hPa 2.1 m/s 0.0 mm 26.2° 1013.9 hPa 3.2 m/s 1.9 mm 23.3° 1015.2 hPa 2.8 m/s 0.0 mm 24.4° 1014.5 hPa 2.1 m/s 0.0 mm 21.7° 1014.5 hPa 3.4 m/s
14:00 26.6° 1014.6 hPa 3.1 m/s 0.0 mm 26.7° 1014.1 hPa 4.7 m/s 3.1 mm 25.5° 1014.7 hPa 3.0 m/s 0.0 mm 27.2° 1014.7 hPa 3.6 m/s 0.0 mm 24.3° 1014.6 hPa 4.0 m/s
17:00 25.3° 1014.8 hPa 3.2 m/s 0.0 mm 25.5° 1013.2 hPa 4.4 m/s 5.1 mm 25.4° 1015.0 hPa 2.4 m/s 0.1 mm 26.7° 1014.6 hPa 4.0 m/s 0.0 mm 23.0° 1015.2 hPa 2.0 m/s
20:00 23.4° 1014.7 hPa 2.5 m/s 0.0 mm 21.8° 1014.5 hPa 4.0 m/s 8.2 mm 23.4° 1014.9 hPa 1.8 m/s 0.0 mm 25.3° 1014.8 hPa 2.5 m/s 0.0 mm 22.1° 1016.0 hPa 0.7 m/s
23:00 20.0° 1015.5 hPa 1.6 m/s 0.0 mm 16.5° 1014.3 hPa 2.7 m/s 9.1 mm 19.1° 1015.8 hPa 1.2 m/s 0.4 mm 21.1° 1016.0 hPa 1.5 m/s 0.0 mm 17.2° 1017.0 hPa 2.1 m/s
 04:35     21:59    Daglengte: 17:24 Morgen
02:00 17.7° 1014.9 hPa 1.9 m/s 0.0 mm 15.6° 1013.8 hPa 1.4 m/s 9.1 mm 16.8° 1015.0 hPa 1.9 m/s 0.0 mm 18.4° 1015.6 hPa 1.6 m/s 0.0 mm 16.6° 1016.0 hPa 2.7 m/s
05:00 16.6° 1014.4 hPa 2.2 m/s 0.0 mm 15.7° 1013.3 hPa 2.6 m/s 9.2 mm 15.9° 1014.6 hPa 2.0 m/s 0.0 mm 16.7° 1015.0 hPa 2.2 m/s 0.0 mm 16.9° 1015.3 hPa 2.6 m/s
08:00 20.3° 1013.9 hPa 3.0 m/s 0.0 mm 22.3° 1012.2 hPa 4.0 m/s 9.2 mm 19.7° 1014.2 hPa 2.5 m/s 0.0 mm 20.7° 1014.4 hPa 3.9 m/s 0.0 mm 20.0° 1014.5 hPa 3.0 m/s
11:00 25.9° 1013.2 hPa 4.1 m/s 0.0 mm 27.1° 1011.1 hPa 6.1 m/s 9.2 mm 25.0° 1014.1 hPa 3.8 m/s 0.0 mm 26.5° 1013.4 hPa 4.6 m/s 0.0 mm 24.4° 1014.2 hPa 4.2 m/s
14:00 27.7° 1012.5 hPa 4.8 m/s 0.0 mm 28.8° 1010.0 hPa 7.6 m/s 9.2 mm 27.1° 1013.3 hPa 4.5 m/s 0.0 mm 27.6° 1012.7 hPa 4.8 m/s 0.0 mm 26.0° 1013.3 hPa 4.9 m/s
17:00 25.7° 1012.5 hPa 5.8 m/s 0.0 mm 26.4° 1010.5 hPa 5.7 m/s 10.2 mm 25.8° 1013.0 hPa 3.3 m/s 0.0 mm 28.2° 1011.1 hPa 7.6 m/s 0.0 mm 24.2° 1013.7 hPa 5.2 m/s
20:00 20.8° 1014.2 hPa 5.9 m/s 2.4 mm 18.4° 1013.5 hPa 6.2 m/s 10.6 mm 20.8° 1014.9 hPa 4.5 m/s 2.9 mm 25.7° 1010.1 hPa 7.5 m/s 0.0 mm 20.5° 1014.9 hPa 4.0 m/s
23:00 16.4° 1015.6 hPa 4.5 m/s 8.0 mm 15.1° 1015.0 hPa 5.2 m/s 10.6 mm 18.2° 1015.3 hPa 3.3 m/s 12.1 mm 16.8° 1016.5 hPa 3.6 m/s
 04:35     21:58    Daglengte: 17:23 Dinsdag 28 Jun
02:00 15.2° 1017.1 hPa 4.4 m/s 7.1 mm 13.6° 1017.2 hPa 4.5 m/s 11.5 mm 15.7° 1016.1 hPa 4.5 m/s 5.5 mm 15.7° 1017.1 hPa 4.4 m/s
05:00 13.9° 1017.9 hPa 3.4 m/s 5.3 mm 12.2° 1017.7 hPa 2.8 m/s 12.2 mm 14.0° 1017.1 hPa 4.6 m/s 1.8 mm 14.8° 1018.3 hPa 2.8 m/s
08:00 15.7° 1018.8 hPa 3.5 m/s 0.0 mm 15.7° 1019.3 hPa 3.6 m/s 12.2 mm 15.7° 1018.7 hPa 3.4 m/s 0.0 mm 15.1° 1019.9 hPa 3.8 m/s
11:00 18.9° 1019.8 hPa 4.3 m/s 0.0 mm 19.2° 1019.8 hPa 5.2 m/s 12.2 mm 18.9° 1019.8 hPa 4.0 m/s 0.0 mm 18.7° 1020.8 hPa 3.7 m/s
14:00 21.1° 1020.1 hPa 3.8 m/s 0.0 mm 20.7° 1020.4 hPa 4.4 m/s 12.2 mm 21.2° 1020.0 hPa 3.7 m/s 0.0 mm 20.3° 1021.2 hPa 3.8 m/s
17:00 21.8° 1020.1 hPa 2.8 m/s 0.0 mm 21.4° 1020.3 hPa 3.5 m/s 12.2 mm 21.9° 1020.1 hPa 2.6 m/s 0.0 mm 20.7° 1021.1 hPa 2.5 m/s
20:00 20.6° 1019.7 hPa 1.7 m/s 0.0 mm 20.3° 1019.9 hPa 2.9 m/s 12.2 mm 20.6° 1019.7 hPa 1.3 m/s 0.0 mm 18.6° 1021.1 hPa 2.6 m/s
23:00 15.1° 1020.1 hPa 1.3 m/s 0.0 mm 13.1° 1020.6 hPa 2.1 m/s 12.2 mm 15.6° 1020.0 hPa 1.1 m/s 0.0 mm 13.7° 1021.5 hPa 0.6 m/s
 04:36     21:58    Daglengte: 17:22 Woensdag 29 Jun
02:00 12.7° 1019.9 hPa 1.4 m/s 0.0 mm 10.8° 1020.8 hPa 1.2 m/s 12.2 mm 13.2° 1019.7 hPa 1.4 m/s 0.0 mm 12.7° 1021.6 hPa 1.9 m/s
05:00 12.4° 1021.1 hPa 1.6 m/s 17.8 mm 12.4° 1021.1 hPa 1.6 m/s 17.8 mm
08:00 17.6° 1020.9 hPa 1.9 m/s 17.8 mm 17.6° 1020.9 hPa 1.9 m/s 17.8 mm
11:00 20.8° 1020.9 hPa 2.1 m/s 17.8 mm 20.8° 1020.9 hPa 2.1 m/s 17.8 mm
14:00 22.7° 1020.0 hPa 2.9 m/s 17.8 mm 22.7° 1020.0 hPa 2.9 m/s 17.8 mm
17:00 22.8° 1019.2 hPa 2.3 m/s 17.8 mm 22.8° 1019.2 hPa 2.3 m/s 17.8 mm
20:00 19.5° 1018.2 hPa 1.8 m/s 17.8 mm 19.5° 1018.2 hPa 1.8 m/s 17.8 mm
23:00 14.2° 1018.7 hPa 2.2 m/s 17.8 mm 14.2° 1018.7 hPa 2.2 m/s 17.8 mm
 04:37     21:58    Daglengte: 17:21 Donderdag 30 Jun
02:00 13.6° 1018.0 hPa 3.0 m/s 17.8 mm 13.6° 1018.0 hPa 3.0 m/s 17.8 mm
05:00 13.2° 1017.6 hPa 2.6 m/s 17.8 mm 13.2° 1017.6 hPa 2.6 m/s 17.8 mm
08:00 15.9° 1017.0 hPa 3.5 m/s 17.8 mm 15.9° 1017.0 hPa 3.5 m/s 17.8 mm
11:00 20.2° 1016.4 hPa 4.5 m/s 17.8 mm 20.2° 1016.4 hPa 4.5 m/s 17.8 mm
14:00 21.3° 1015.4 hPa 3.6 m/s 17.8 mm 21.3° 1015.4 hPa 3.6 m/s 17.8 mm
17:00 21.4° 1014.3 hPa 2.3 m/s 17.8 mm 21.4° 1014.3 hPa 2.3 m/s 17.8 mm
20:00 19.1° 1013.5 hPa 2.2 m/s 17.8 mm 19.1° 1013.5 hPa 2.2 m/s 17.8 mm
23:00 15.5° 1012.9 hPa 2.0 m/s 17.8 mm 15.5° 1012.9 hPa 2.0 m/s 17.8 mm
 04:38     21:57    Daglengte: 17:19 Vrijdag 01 Jul
02:00 15.1° 1012.3 hPa 0.6 m/s 17.8 mm 15.1° 1012.3 hPa 0.6 m/s 17.8 mm
05:00 15.3° 1011.1 hPa 2.1 m/s 17.8 mm 15.3° 1011.1 hPa 2.1 m/s 17.8 mm
08:00 19.3° 1011.0 hPa 2.8 m/s 17.8 mm 19.3° 1011.0 hPa 2.8 m/s 17.8 mm
11:00 23.3° 1010.3 hPa 3.2 m/s 17.8 mm 23.3° 1010.3 hPa 3.2 m/s 17.8 mm
14:00 21.6° 1010.9 hPa 3.5 m/s 19.5 mm 21.6° 1010.9 hPa 3.5 m/s 19.5 mm
17:00 21.9° 1011.5 hPa 3.2 m/s 20.5 mm 21.8° 1011.5 hPa 3.2 m/s 20.5 mm
20:00 19.9° 1011.7 hPa 6.0 m/s 21.0 mm 19.9° 1011.7 hPa 6.0 m/s 21.0 mm
23:00 16.0° 1014.4 hPa 5.9 m/s 21.0 mm 16.0° 1014.4 hPa 5.9 m/s 21.0 mm
 04:39     21:57    Daglengte: 17:18 Zaterdag 02 Jul
02:00 13.0° 1015.2 hPa 3.5 m/s 21.0 mm 13.0° 1015.2 hPa 3.5 m/s 21.0 mm
05:00 12.2° 1015.7 hPa 3.2 m/s 21.0 mm 12.2° 1015.7 hPa 3.2 m/s 21.0 mm
08:00 16.5° 1017.2 hPa 4.6 m/s 21.0 mm 16.5° 1017.2 hPa 4.6 m/s 21.0 mm
11:00 17.7° 1017.4 hPa 4.9 m/s 21.0 mm 17.7° 1017.4 hPa 4.9 m/s 21.0 mm
14:00 18.7° 1018.1 hPa 4.8 m/s 21.0 mm 18.7° 1018.1 hPa 4.8 m/s 21.0 mm
17:00 20.1° 1017.4 hPa 6.5 m/s 21.1 mm 20.1° 1017.4 hPa 6.5 m/s 21.1 mm
20:00 17.7° 1017.1 hPa 4.6 m/s 21.4 mm 17.7° 1017.1 hPa 4.6 m/s 21.4 mm
23:00 13.7° 1017.6 hPa 3.3 m/s 21.4 mm 13.7° 1017.6 hPa 3.3 m/s 21.4 mm
 04:40     21:56    Daglengte: 17:16 Zondag 03 Jul
02:00 13.3° 1017.1 hPa 3.3 m/s 21.4 mm 13.3° 1017.1 hPa 3.3 m/s 21.4 mm
08:00 16.9° 1015.8 hPa 6.6 m/s 22.0 mm 16.9° 1015.8 hPa 6.6 m/s 22.0 mm
14:00 19.9° 1014.8 hPa 9.6 m/s 23.0 mm 19.9° 1014.8 hPa 9.6 m/s 23.0 mm
20:00 17.5° 1013.6 hPa 5.7 m/s 23.9 mm 17.5° 1013.6 hPa 5.7 m/s 23.9 mm
 04:40     21:56    Daglengte: 17:16 Maandag 04 Jul
02:00 12.4° 1013.0 hPa 4.7 m/s 24.0 mm 12.4° 1013.0 hPa 4.7 m/s 24.0 mm
08:00 14.8° 1011.0 hPa 6.3 m/s 24.9 mm 14.8° 1011.0 hPa 6.3 m/s 24.9 mm
14:00 17.9° 1009.8 hPa 9.8 m/s 26.8 mm 17.9° 1009.8 hPa 9.8 m/s 26.8 mm
20:00 15.7° 1012.0 hPa 8.7 m/s 27.8 mm 15.7° 1012.0 hPa 8.7 m/s 27.8 mm
 04:41     21:55    Daglengte: 17:14 Dinsdag 05 Jul
02:00 13.9° 1013.1 hPa 8.0 m/s 28.0 mm 13.9° 1013.1 hPa 8.0 m/s 28.0 mm
08:00 14.6° 1013.9 hPa 8.7 m/s 28.4 mm 14.6° 1013.9 hPa 8.7 m/s 28.4 mm
14:00 17.5° 1016.0 hPa 8.8 m/s 28.5 mm 17.5° 1016.0 hPa 8.8 m/s 28.5 mm
20:00 17.4° 1016.4 hPa 7.1 m/s 28.7 mm 17.4° 1016.4 hPa 7.1 m/s 28.7 mm
 04:43     21:54    Daglengte: 17:11 Woensdag 06 Jul
02:00 13.6° 1016.8 hPa 2.5 m/s 0.2 mm
08:00 16.1° 1016.9 hPa 2.8 m/s 0.3 mm
14:00 20.6° 1017.0 hPa 3.5 m/s 0.3 mm
20:00 18.5° 1016.1 hPa 2.4 m/s 0.3 mm
 04:44     21:54    Daglengte: 17:10 Donderdag 07 Jul
02:00 14.1° 1016.0 hPa 1.8 m/s 0.2 mm
08:00 16.4° 1015.6 hPa 1.9 m/s 0.3 mm
14:00 20.4° 1015.7 hPa 2.8 m/s 0.7 mm
20:00 18.6° 1015.1 hPa 2.1 m/s 0.2 mm
 04:45     21:53    Daglengte: 17:08 Vrijdag 08 Jul
02:00 13.9° 1015.3 hPa 1.5 m/s 0.0 mm
08:00 16.3° 1015.0 hPa 2.7 m/s 1.0 mm
14:00 20.4° 1015.0 hPa 3.6 m/s 0.7 mm
20:00 18.6° 1014.5 hPa 2.8 m/s 0.5 mm
 04:46     21:52    Daglengte: 17:06 Zaterdag 09 Jul
02:00 13.7° 1014.9 hPa 2.3 m/s 0.6 mm
08:00 16.5° 1014.7 hPa 2.8 m/s 0.2 mm
14:00 20.7° 1014.2 hPa 4.4 m/s 0.8 mm
20:00 18.6° 1013.4 hPa 2.5 m/s 0.8 mm
 04:47     21:51    Daglengte: 17:04 Zondag 10 Jul
02:00 14.1° 1013.1 hPa 1.7 m/s 0.3 mm
08:00 16.5° 1012.4 hPa 2.6 m/s 0.4 mm
14:00 20.0° 1012.3 hPa 3.6 m/s 1.3 mm
20:00 18.3° 1012.0 hPa 3.0 m/s 0.9 mm
 04:49     21:50    Daglengte: 17:01 Maandag 11 Jul
02:00 13.9° 1012.3 hPa 3.0 m/s 0.5 mm
FMI Hirlam - 7.5 km EWN WRFDA - 12 km DWD ICON - 7 km GFS - 25 km Basiskaart






























































Updatetijd (Europe/Amsterdam) Resolutie Lengte Stap
FMI Hirlam 01:45, 07:45, 13:45, 19:45 7.5 km 49h 1h
EWN WRFDA 22:30, 04:30, 10:30, 16:30 12 km 73h 1h
DWD ICON 23:45, 05:45, 11:45, 17:45 7 km 75h 1h
GFS 02:15, 08:15, 14:15, 20:15 25 km 237h 3h
30+ mm
25-30 mm
20-25 mm
15-20 mm
10-15 mm
6-10 mm
4-6 mm
2-4 mm
1-2 mm
0.5-1 mm
0.2-0.5 mm
0.1-0.2 mm
30+ mm
25-30 mm
20-25 mm
15-20 mm
10-15 mm
6-10 mm
4-6 mm
2-4 mm
1-2 mm
0.5-1 mm
0.2-0.5 mm
0.1-0.2 mm
Sneeuwval
Natte sneeuw
Hagel
Vorst
30+ mm
25-30 mm
20-25 mm
15-20 mm
10-15 mm
6-10 mm
4-6 mm
2-4 mm
1-2 mm
0.5-1 mm
0.2-0.5 mm
0.1-0.2 mm
Sneeuwval
Natte sneeuw
Hagel
Vorst
Onweer
50 mm
40 mm
30 mm
26 mm
22 mm
18 mm
14 mm
10 mm
9 mm
8 mm
7 mm
6 mm
5 mm
4.5 mm
4 mm
3.5 mm
3 mm
2.5 mm
2 mm
1.5 mm
1 mm
0.8 mm
0.6 mm
0.4 mm
0.2 mm
0.05 mm
35°
30°
25°
20°
15°
10°
-5°
-10°
-15°
-20°
-25°
-30°
-35°
33> m/s
29 m/s
25 m/s
21 m/s
17 m/s
14 m/s
11 m/s
8 m/s
5 m/s
3 m/s
0 m/s
2600 J/kg
2400 J/kg
2200 J/kg
2000 J/kg
1800 J/kg
1600 J/kg
1400 J/kg
1200 J/kg
1000 J/kg
800 J/kg
600 J/kg
400 J/kg
200 J/kg
70 dBZ
65 dBZ
60 dBZ
55 dBZ
50 dBZ
45 dBZ
40 dBZ
35 dBZ
30 dBZ
25 dBZ
20 dBZ
15 dBZ
10 dBZ
5 dBZ
-1 K
-2 K
-3 K
-4 K
-5 K
-6 K
-7 K
-8 K
-9 K
950 m²/s²
900 m²/s²
850 m²/s²
800 m²/s²
750 m²/s²
700 m²/s²
650 m²/s²
600 m²/s²
550 m²/s²
500 m²/s²
450 m²/s²
400 m²/s²
350 m²/s²
300 m²/s²
250 m²/s²